Location: Boiro
(42.6475°N, 8.8834°W)
Time: 06:00:23
(UTC+01:00)

Vanguard 1 - Pass Details

Date: 05 December 2021
Orbit: 652 x 3830 km, 34.2° (Epoch: 21 January)

Event Time Altitude Azimuth Distance (km) Brightness Sun altitude
Rises 21:27:21 0° 179° (S) 6,209 14.1 -37.0°
Reaches altitude 10° 21:33:18 10° 162° (SSE) 5,752 13.8 -38.1°
Enters shadow 21:36:09 14° 153° (SSE) 5,655 13.6 -38.6°
Maximum altitude 21:44:07 18° 126° (SE) 5,794 - -40.0°
Drops below altitude 10° 21:56:45 10° 92° (E) 6,915 - -42.3°
Sets 22:04:58 0° 78° (ENE) 7,944 - -43.8°
